Hourly Weather Abakan

Today, 26 October, Monday

Time Temperature Precipitation Wind Pressure Humidity
00:00 -3°C° 0 mm 2 mps 749 mmHg 49%
01:00 -3°C° 0 mm 2 mps 749 mmHg 49%
02:00 -3°C° 0 mm 2 mps 749 mmHg 49%
03:00 -3°C° 0 mm 2 mps 748 mmHg 48%
04:00 -3°C° 0 mm 2 mps 748 mmHg 48%
05:00 -3°C° 0 mm 2 mps 748 mmHg 48%
06:00 -3°C° 0 mm 2 mps 748 mmHg 48%
07:00 -2°C° 0 mm 2 mps 747 mmHg 46%
08:00 -1°C° 0 mm 2 mps 747 mmHg 44%
09:00 -1°C° 0 mm 3 mps 747 mmHg 42%
10:00 +1°C° 0 mm 3 mps 746 mmHg 42%
11:00 +2°C° 0 mm 3 mps 746 mmHg 42%
12:00 +3°C° 0 mm 3 mps 745 mmHg 42%
13:00 +3°C° 0 mm 3 mps 745 mmHg 44%
14:00 +3°C° 0 mm 3 mps 744 mmHg 46%
15:00 +4°C° 0 mm 2 mps 744 mmHg 48%
16:00 +4°C° 0 mm 2 mps 744 mmHg 51%
17:00 +3°C° 0 mm 2 mps 744 mmHg 54%
18:00 +3°C° 0 mm 2 mps 744 mmHg 89%
19:00 +3°C° 0.6 mm 2 mps 744 mmHg 91%
20:00 +2°C° 0.6 mm 3 mps 744 mmHg 93%
21:00 +2°C° 0.6 mm 3 mps 744 mmHg 96%
22:00 +2°C° 0.7 mm 2 mps 742 mmHg 85%
23:00 +1°C° 0.7 mm 3 mps 743 mmHg 89%

Tomorrow, 27 October, Tuesday

Time Temperature Precipitation Wind Pressure Humidity
00:00 +1°C° 0.7 mm 3 mps 743 mmHg 92%
01:00 +1°C° 0 mm 3 mps 742 mmHg 89%
02:00 +2°C° 0 mm 2 mps 742 mmHg 86%
03:00 +2°C° 0 mm 2 mps 742 mmHg 82%
04:00 +1°C° 0 mm 2 mps 741 mmHg 74%
05:00 +1°C° 0 mm 2 mps 741 mmHg 73%
06:00 -1°C° 0 mm 2 mps 741 mmHg 72%
07:00 +3°C° 0 mm 2 mps 742 mmHg 84%
08:00 +3°C° 0 mm 2 mps 742 mmHg 76%
09:00 +4°C° 0 mm 1 mps 741 mmHg 68%
10:00 +5°C° 0 mm 1 mps 740 mmHg 66%
11:00 +6°C° 0 mm 1 mps 740 mmHg 63%
12:00 +6°C° 0 mm 1 mps 740 mmHg 61%
13:00 +6°C° 0 mm 1 mps 739 mmHg 64%
14:00 +6°C° 0 mm 1 mps 739 mmHg 67%
15:00 +6°C° 0 mm 1 mps 738 mmHg 70%
16:00 +5°C° 0 mm 1 mps 738 mmHg 73%
17:00 +5°C° 0 mm 1 mps 738 mmHg 76%
18:00 +4°C° 0 mm 1 mps 738 mmHg 79%
19:00 +3°C° 0 mm 1 mps 738 mmHg 79%
20:00 +3°C° 0 mm 1 mps 737 mmHg 79%
21:00 +3°C° 0 mm 1 mps 737 mmHg 79%
22:00 +3°C° 0 mm 1 mps 737 mmHg 79%
23:00 +2°C° 0 mm 1 mps 736 mmHg 79%

Day after tomorrow, 28 October, Wednesday

Time Temperature Precipitation Wind Pressure Humidity
00:00 +2°C° 0 mm 1 mps 736 mmHg 79%
01:00 +2°C° 0 mm 1 mps 735 mmHg 78%
02:00 +2°C° 0 mm 1 mps 735 mmHg 78%
03:00 +1°C° 0 mm 1 mps 734 mmHg 78%
04:00 +1°C° 0 mm 2 mps 734 mmHg 71%
05:00 +1°C° 0 mm 2 mps 733 mmHg 70%
06:00 +1°C° 0 mm 2 mps 733 mmHg 69%
07:00 +1°C° 0 mm 2 mps 733 mmHg 67%
08:00 +2°C° 0 mm 2 mps 733 mmHg 65%
09:00 +3°C° 0 mm 2 mps 733 mmHg 63%
10:00 +3°C° 0.1 mm 2 mps 734 mmHg 62%
11:00 +3°C° 0.1 mm 3 mps 734 mmHg 62%
12:00 +4°C° 0.1 mm 3 mps 734 mmHg 61%
13:00 +5°C° 0.1 mm 3 mps 735 mmHg 62%
14:00 +5°C° 0.1 mm 3 mps 736 mmHg 63%
15:00 +5°C° 0.1 mm 3 mps 737 mmHg 64%
16:00 +4°C° 0 mm 4 mps 737 mmHg 65%
17:00 +3°C° 0 mm 4 mps 738 mmHg 66%
18:00 +1°C° 0 mm 5 mps 738 mmHg 68%
19:00 +1°C° 0.1 mm 5 mps 739 mmHg 68%
20:00 +1°C° 0.1 mm 5 mps 739 mmHg 69%
21:00 +1°C° 0.1 mm 5 mps 740 mmHg 70%
22:00 0°C° 0 mm 5 mps 740 mmHg 70%
23:00 0°C° 0 mm 5 mps 741 mmHg 70%

29 October, Thursday

Time Temperature Precipitation Wind Pressure Humidity
00:00 0°C° 0 mm 5 mps 741 mmHg 70%
01:00 0°C° 0 mm 5 mps 741 mmHg 70%
02:00 0°C° 0 mm 5 mps 742 mmHg 69%
03:00 -1°C° 0 mm 6 mps 742 mmHg 69%
04:00 -1°C° 0 mm 5 mps 743 mmHg 70%
05:00 -1°C° 0 mm 5 mps 743 mmHg 72%
06:00 -2°C° 0 mm 5 mps 743 mmHg 74%
07:00 -1°C° 0 mm 5 mps 743 mmHg 70%
08:00 0°C° 0 mm 5 mps 743 mmHg 66%
09:00 +1°C° 0 mm 6 mps 744 mmHg 61%
10:00 +2°C° 0 mm 6 mps 743 mmHg 58%
11:00 +3°C° 0 mm 5 mps 743 mmHg 54%
12:00 +3°C° 0 mm 5 mps 743 mmHg 51%
13:00 +3°C° 0 mm 5 mps 743 mmHg 51%
14:00 +4°C° 0 mm 4 mps 743 mmHg 52%
15:00 +4°C° 0 mm 4 mps 744 mmHg 53%
16:00 +4°C° 0 mm 3 mps 744 mmHg 56%
17:00 +3°C° 0 mm 3 mps 744 mmHg 60%
18:00 +3°C° 0 mm 2 mps 744 mmHg 63%
19:00 +3°C° 0 mm 2 mps 744 mmHg 65%
20:00 +3°C° 0 mm 2 mps 745 mmHg 66%
21:00 +3°C° 0 mm 2 mps 745 mmHg 68%
22:00 +3°C° 0 mm 2 mps 745 mmHg 69%
23:00 +1°C° 0 mm 3 mps 745 mmHg 71%

30 October, Friday

Time Temperature Precipitation Wind Pressure Humidity
00:00 +1°C° 0 mm 3 mps 745 mmHg 72%
01:00 +1°C° 0 mm 3 mps 745 mmHg 73%
02:00 +1°C° 0 mm 3 mps 745 mmHg 75%
03:00 0°C° 0 mm 3 mps 745 mmHg 77%
04:00 +1°C° 0 mm 2 mps 745 mmHg 77%
05:00 +1°C° 0 mm 2 mps 745 mmHg 77%
06:00 +1°C° 0 mm 2 mps 745 mmHg 77%
07:00 +1°C° 0 mm 3 mps 745 mmHg 73%
08:00 0°C° 0 mm 4 mps 746 mmHg 69%
09:00 +1°C° 0 mm 5 mps 746 mmHg 66%
10:00 +1°C° 0 mm 5 mps 746 mmHg 60%
11:00 +1°C° 0 mm 6 mps 746 mmHg 54%
12:00 +2°C° 0 mm 7 mps 746 mmHg 48%
13:00 +2°C° 0 mm 6 mps 747 mmHg 48%
14:00 +1°C° 0 mm 6 mps 747 mmHg 48%
15:00 +1°C° 0 mm 5 mps 747 mmHg 48%
16:00 0°C° 0 mm 5 mps 748 mmHg 51%
17:00 -2°C° 0 mm 6 mps 748 mmHg 53%
18:00 -3°C° 0 mm 6 mps 749 mmHg 56%
19:00 -4°C° 0 mm 5 mps 749 mmHg 56%
20:00 -4°C° 0 mm 5 mps 750 mmHg 57%
21:00 -5°C° 0 mm 5 mps 750 mmHg 58%
22:00 -5°C° 0 mm 5 mps 750 mmHg 56%
23:00 -5°C° 0 mm 5 mps 750 mmHg 54%

31 October, Saturday

Time Temperature Precipitation Wind Pressure Humidity
00:00 -6°C° 0 mm 5 mps 751 mmHg 52%
01:00 -5°C° 0 mm 6 mps 751 mmHg 51%
02:00 -5°C° 0 mm 6 mps 751 mmHg 51%
03:00 -6°C° 0 mm 7 mps 751 mmHg 50%
04:00 -6°C° 0 mm 7 mps 751 mmHg 54%
05:00 -6°C° 0 mm 7 mps 751 mmHg 59%
06:00 -6°C° 0 mm 7 mps 751 mmHg 63%
07:00 -6°C° 0 mm 7 mps 751 mmHg 61%
08:00 -4°C° 0 mm 7 mps 751 mmHg 58%
09:00 -5°C° 0 mm 8 mps 751 mmHg 56%
10:00 -3°C° 0 mm 7 mps 751 mmHg 53%
11:00 -2°C° 0 mm 7 mps 751 mmHg 49%
12:00 -1°C° 0 mm 7 mps 751 mmHg 46%
Show more